Regional Weather Roundup
Issued by NWS

Home | Current Version | Previous Version | Graphics & Text | Print | Product List | Glossary On
Versions: 1 2 3 4 5 6 7 8 9 10 11 12 13 14 15 16 17 18 19 20 21 22 23 24 25 26 27 28 29 30 31 32 33 34 35 36 37 38 39 40 41 42 43 44 45 46 47 48 49 50
000
ASUS43 KIND 022159
RWRIN

WEATHER ROUNDUP FOR INDIANA
NATIONAL WEATHER SERVICE INDIANAPOLIS IN
600 PM EDT THU JUL 02 2015

NOTE: "FAIR" INDICATES FEW OR NO CLOUDS BELOW 12,000 FEET WITH NO
SIGNIFICANT WEATHER AND/OR OBSTRUCTIONS TO VISIBILITY.

* - STATION DOES NOT REPORT WEATHER SUCH AS PRECIPITATION OR FOG.

+ - STATION NOT QUALITY CONTROLLED BY THE NATIONAL WEATHER SERVICE.
    USE DATA WITH CAUTION...ESPECIALLY DEWPOINT AND RELATIVE
    HUMIDITY OBSERVATIONS.

INZ001>003-010>013-019-020-022300-
NORTHWEST INDIANA

CITY           SKY/WX    TMP DP  RH WIND       PRES   REMARKS
GARY /AIRPORT/ PTSUNNY   66  59  77 N14       29.98S
RENSSELAER +   MOSUNNY   75  55  50 NE10      29.93F

$$

LMZ046-743>745-022300-
SOUTHERN LAKE MICHIGAN

STATION/POSITION TIME  TEMP    WIND        PRES    WAVE
                       AIR SEA DIR/SP/G            HT
                 (UTC) (F)     (DEG/KT/KT) (MB)    (FT)
BURNS HARBOR     2100   62      10/ 12/ 15 1015.6S
MICHIGAN CITY    2100   63     360/ 16/ 17   N/A
5NW MICH CITY    2100   63 64   10/ 14/ 19   N/A     4

$$

INZ004-005-014>016-021>024-022300-
NORTH CENTRAL INDIANA

CITY           SKY/WX    TMP DP  RH WIND       PRES   REMARKS
ELKHART        MOSUNNY   73  54  49 E10       29.97S
GOSHEN         PTSUNNY   73  56  54 E10       29.96S
SOUTH BEND     PTSUNNY   75  55  49 NE9       29.96S

$$

INZ006>009-017-018-025>027-022300-
NORTHEAST INDIANA

CITY           SKY/WX    TMP DP  RH WIND       PRES   REMARKS
ANGOLA *+        N/A     72  64  78 E6        29.96S
FORT WAYNE     PTSUNNY   75  57  53 E12G20    29.94S

$$

INZ028-029-035-036-043>045-051>053-022300-
WEST CENTRAL INDIANA

CITY           SKY/WX    TMP DP  RH WIND       PRES   REMARKS
CRAWFORDSVL +  PTSUNNY   75  59  58 NE10      29.89S
GREENCASTLE +  PTSUNNY   77  61  57 E7        29.88F
LAFAYETTE      MOSUNNY   75  62  64 NE9       29.91S
TERRE HAUTE    PTSUNNY   78  67  68 VRB3      29.87R

$$

INZ030>032-037>040-046>048-054>057-064-065-022300-
CENTRAL INDIANA

CITY           SKY/WX    TMP DP  RH WIND       PRES   REMARKS
COLUMBUS       MOSUNNY   77  66  69 NE13      29.86S
GREENWOOD *+   MOSUNNY   79  61  53 NE6       29.88S
INDIANAPOLIS   PTSUNNY   78  62  57 NE10      29.86S
-EAGLE CREEK   PTSUNNY   77  63  61 NE9       29.88S
KOKOMO *+      PTSUNNY   73  63  68 E13       29.91S
MT COMFORT *+  MOSUNNY   77  57  50 E10       29.89S
SHELBYVILLE    PTSUNNY   79  66  64 E12       29.87S

$$

INZ033-034-041-042-049-050-058-059-022300-
EAST CENTRAL INDIANA

CITY           SKY/WX    TMP DP  RH WIND       PRES   REMARKS
MUNCIE         MOSUNNY   75  63  66 NE14G20   29.91S

$$

INZ060-061-067>069-081>083-085>088-022300-
SOUTHWEST INDIANA

CITY           SKY/WX    TMP DP  RH WIND       PRES   REMARKS
EVANSVILLE     CLOUDY    79  70  74 N8        29.84S
HUNTINGBURG *+ CLOUDY    77  70  78 W5        29.85S

$$

INZ062-063-066-070>080-084-089>092-022300-
SOUTH CENTRAL AND SOUTHEAST INDIANA

CITY           SKY/WX    TMP DP  RH WIND       PRES   REMARKS
BLOOMINGTON    PTSUNNY   77  67  71 NE9       29.87S
MADISON *+     CLOUDY    73  68  83 E8        29.88S
SEYMOUR +      PTSUNNY   81  70  69 SE3       29.85S

$$




USA.gov is the U.S. government's official web portal to all federal, state and local government web resources and services.